Tracking 29606 objects as of 19-Sep-2024
HD Live streaming from Space Station
objects crossing your sky now

STARLINK-31874

Track STARLINK-31874 now!
10-day predictions
STARLINK-31874 is classified as:


NORAD ID: 60603
Int'l Code: 2024-150W
Perigee: 453.5 km
Apogee: 455.4 km
Inclination: 53.2 °
Period: 93.5 minutes
Semi major axis: 6825 km
RCS: Unknown
Launch date: August 20, 2024
Source: United States (US)
Launch site: AIR FORCE EASTERN TEST RANGE (AFETR)
Your satellite tracking list
Your tracking list is empty




NASA's NSSDC Master Catalog

Two Line Element Set (TLE):
1 60603U 24150W   24262.44927807 -.00004887  00000-0 -11235-3 0  9998
2 60603  53.1590 284.8462 0001350 104.2421 255.8734 15.39597252  5756
Source of the keplerian elements: AFSPC